Regional Weather Roundup
Issued by NWS

Home | Current Version | Previous Version | Text Only | Print | Product List | Glossary Off
Versions: 1 2 3 4 5 6 7 8 9 10 11 12 13 14 15 16 17 18 19 20 21 22 23 24 25 26 27 28 29 30 31 32 33 34 35 36 37 38 39 40 41 42 43 44 45 46 47 48 49 50

000
ASUS43 KFSD 291910
RWRSD

WEATHER ROUNDUP FOR SOUTH DAKOTA
NATIONAL WEATHER SERVICE SIOUX FALLS SD
200 PM CDT TUE JUL 29 2014

NOTE: "FAIR" INDICATES FEW OR NO CLOUDS BELOW 12,000 FEET WITH NO
SIGNIFICANT WEATHER AND/OR OBSTRUCTIONS TO VISIBILITY.


SDZ001>005-009-010-012>017-292000-
NORTHWEST AND NORTH CENTRAL SOUTH DAKOTA

CITY           SKY/WX    TMP DP  RH WIND       PRES   REMARKS
BUFFALO          N/A     79  51  37 SW8       30.17S
FAITH            N/A     77  51  40 MISG      30.22F
MOBRIDGE       MOSUNNY   78  55  44 VRB6      30.18F
$$

SDZ012>016-024>037-041>051-057-063-072>074-292000-
SOUTHWEST AND SOUTH CENTRAL SOUTH DAKOTA

CITY           SKY/WX    TMP DP  RH WIND       PRES   REMARKS
RAPID CTY ARPT CLOUDY    66  57  72 CALM      30.27S
PIERRE         MOSUNNY   78  50  37 MISG      30.18F
CUSTER         CLOUDY    62  54  74 S5        30.35F
ELLSWORTH AFB  LGT RAIN  66  59  76 S5        30.26F
PHILIP         CLOUDY    76  48  37 E7        30.21F
PINE RIDGE     CLOUDY    68  59  73 E5        30.26S
WINNER         FAIR      79  47  32 CALM      30.20F
$$

SDZ004>011-016>023-039-040-292000-
NORTHEAST SOUTH DAKOTA

CITY           SKY/WX    TMP DP  RH WIND       PRES   REMARKS
ABERDEEN       PTSUNNY   77  51  40 N7        30.18F
WATERTOWN      MOSUNNY   72  50  45 NW8       30.19F
SISSETON         N/A     75  55  49 N9        30.16F
$$

SDZ017-020-022-023-036>040-048>070-292000-
SOUTHEAST SOUTH DAKOTA

CITY           SKY/WX    TMP DP  RH WIND       PRES   REMARKS
SIOUX FALLS    PTSUNNY   74  52  46 W5        30.19F
HURON          MOSUNNY   75  50  41 VRB5      30.19F
CHAMBERLAIN    PTSUNNY   75  51  41 CALM      30.20F
MITCHELL       MOSUNNY   76  54  46 N8        30.20F
YANKTON        PTSUNNY   72  52  49 NW6       30.20F
$$

ABBREVIATIONS USED IN REMARKS
   TC - TEMPERATURE IN CELSIUS
  WCI - WIND CHILL INDEX
   HX - HEAT INDEX
  VSB - VISIBILITY




USA.gov is the U.S. government's official web portal to all federal, state and local government web resources and services.